TimeCDT,TemperatureF,Dew PointF,Humidity,Sea Level PressureIn,VisibilityMPH,Wind Direction,Wind SpeedMPH,Gust SpeedMPH,PrecipitationIn,Events,Conditions,WindDirDegrees,DateUTC
12:15 AM,46.4,26.6,46,30.11,10.0,Calm,Calm,-,N/A,,Clear,0,2013-04-27 05:15:00
12:35 AM,42.8,26.6,53,30.11,10.0,West,3.5,-,N/A,,Clear,280,2013-04-27 05:35:00
12:55 AM,48.2,26.6,43,30.11,10.0,Calm,Calm,-,N/A,,Clear,0,2013-04-27 05:55:00
1:15 AM,44.6,26.6,49,30.11,10.0,Calm,Calm,-,N/A,,Clear,0,2013-04-27 06:15:00
1:35 AM,46.4,24.8,43,30.10,10.0,Calm,Calm,-,N/A,,Clear,0,2013-04-27 06:35:00
1:55 AM,46.4,26.6,46,30.10,10.0,Calm,Calm,-,N/A,,Clear,0,2013-04-27 06:55:00
2:15 AM,44.6,26.6,49,30.09,10.0,West,3.5,-,N/A,,Clear,280,2013-04-27 07:15:00
2:35 AM,42.8,26.6,53,30.08,10.0,Calm,Calm,-,N/A,,Clear,0,2013-04-27 07:35:00
2:55 AM,44.6,26.6,49,30.07,10.0,Calm,Calm,-,N/A,,Clear,0,2013-04-27 07:55:00
3:15 AM,44.6,26.6,49,30.06,10.0,Calm,Calm,-,N/A,,Clear,0,2013-04-27 08:15:00
3:35 AM,44.6,26.6,49,30.06,10.0,Calm,Calm,-,N/A,,Clear,0,2013-04-27 08:35:00
3:55 AM,44.6,26.6,49,30.06,10.0,Calm,Calm,-,N/A,,Clear,0,2013-04-27 08:55:00
4:15 AM,44.6,26.6,49,30.05,10.0,WNW,5.8,-,N/A,,Clear,290,2013-04-27 09:15:00
4:35 AM,42.8,26.6,53,30.05,10.0,Calm,Calm,-,N/A,,Clear,0,2013-04-27 09:35:00
4:55 AM,46.4,24.8,43,30.05,10.0,Calm,Calm,-,N/A,,Clear,0,2013-04-27 09:55:00
6:15 AM,48.2,23.0,37,30.04,10.0,Calm,Calm,-,N/A,,Clear,0,2013-04-27 11:15:00
6:35 AM,48.2,23.0,37,30.04,10.0,West,3.5,-,N/A,,Clear,260,2013-04-27 11:35:00
6:55 AM,48.2,23.0,37,30.04,10.0,Calm,Calm,-,N/A,,Clear,0,2013-04-27 11:55:00
7:15 AM,48.2,24.8,40,30.05,10.0,Calm,Calm,-,N/A,,Clear,0,2013-04-27 12:15:00
7:35 AM,50.0,24.8,37,30.05,10.0,Calm,Calm,-,N/A,,Clear,0,2013-04-27 12:35:00
7:55 AM,53.6,26.6,35,30.05,10.0,West,9.2,-,N/A,,Clear,260,2013-04-27 12:55:00
8:15 AM,55.4,26.6,33,30.05,10.0,West,10.4,-,N/A,,Clear,270,2013-04-27 13:15:00
8:35 AM,57.2,28.4,33,30.05,10.0,West,9.2,-,N/A,,Clear,270,2013-04-27 13:35:00
8:55 AM,59.0,26.6,29,30.06,10.0,West,8.1,-,N/A,,Clear,260,2013-04-27 13:55:00
9:15 AM,62.6,26.6,26,30.06,10.0,West,8.1,-,N/A,,Clear,280,2013-04-27 14:15:00
9:35 AM,64.4,26.6,24,30.06,10.0,WNW,16.1,20.7,N/A,,Clear,290,2013-04-27 14:35:00
9:55 AM,64.4,28.4,26,30.07,10.0,WNW,15.0,19.6,N/A,,Clear,300,2013-04-27 14:55:00
10:15 AM,64.4,30.2,28,30.06,10.0,WNW,13.8,20.7,N/A,,Clear,290,2013-04-27 15:15:00
10:35 AM,66.2,32.0,28,30.06,10.0,West,18.4,21.9,N/A,,Clear,280,2013-04-27 15:35:00
10:55 AM,66.2,32.0,28,30.06,10.0,NW,18.4,-,N/A,,Clear,320,2013-04-27 15:55:00
11:15 AM,66.2,32.0,28,30.06,10.0,WNW,13.8,-,N/A,,Clear,300,2013-04-27 16:15:00
11:35 AM,68.0,32.0,26,30.06,10.0,NW,17.3,24.2,N/A,,Clear,320,2013-04-27 16:35:00
11:55 AM,68.0,30.2,24,30.05,10.0,West,15.0,23.0,N/A,,Clear,280,2013-04-27 16:55:00
12:15 PM,68.0,30.2,24,30.05,10.0,NW,13.8,20.7,N/A,,Clear,310,2013-04-27 17:15:00
12:35 PM,68.0,30.2,24,30.04,10.0,West,18.4,26.5,N/A,,Clear,280,2013-04-27 17:35:00
12:55 PM,68.0,32.0,26,30.03,10.0,West,17.3,26.5,N/A,,Clear,280,2013-04-27 17:55:00
1:15 PM,68.0,30.2,24,30.02,10.0,WNW,13.8,21.9,N/A,,Clear,300,2013-04-27 18:15:00
1:35 PM,66.2,26.6,23,30.01,10.0,West,16.1,23.0,N/A,,Clear,280,2013-04-27 18:35:00
1:55 PM,68.0,28.4,23,30.01,10.0,WNW,12.7,19.6,N/A,,Clear,290,2013-04-27 18:55:00
2:15 PM,69.8,28.4,21,30.00,10.0,WNW,15.0,23.0,N/A,,Clear,290,2013-04-27 19:15:00
2:35 PM,71.6,28.4,20,29.99,10.0,WNW,15.0,19.6,N/A,,Clear,300,2013-04-27 19:35:00
2:55 PM,71.6,26.6,19,29.98,10.0,West,18.4,25.3,N/A,,Clear,280,2013-04-27 19:55:00
3:15 PM,71.6,26.6,19,29.97,10.0,West,18.4,24.2,N/A,,Clear,280,2013-04-27 20:15:00
3:35 PM,71.6,26.6,19,29.96,10.0,NW,13.8,21.9,N/A,,Clear,310,2013-04-27 20:35:00
3:55 PM,73.4,26.6,18,29.96,10.0,West,16.1,31.1,N/A,,Clear,280,2013-04-27 20:55:00
4:15 PM,73.4,28.4,19,29.95,10.0,WSW,19.6,25.3,N/A,,Clear,250,2013-04-27 21:15:00
4:35 PM,73.4,26.6,18,29.94,10.0,West,17.3,24.2,N/A,,Clear,280,2013-04-27 21:35:00
4:55 PM,73.4,28.4,19,29.93,10.0,West,16.1,24.2,N/A,,Clear,260,2013-04-27 21:55:00
5:15 PM,73.4,26.6,18,29.92,10.0,West,13.8,-,N/A,,Clear,270,2013-04-27 22:15:00
5:35 PM,73.4,28.4,19,29.91,10.0,WSW,19.6,25.3,N/A,,Clear,250,2013-04-27 22:35:00
5:55 PM,73.4,28.4,19,29.91,10.0,West,16.1,24.2,N/A,,Clear,260,2013-04-27 22:55:00
6:15 PM,71.6,28.4,20,29.91,10.0,West,16.1,21.9,N/A,,Clear,260,2013-04-27 23:15:00
6:35 PM,71.6,28.4,20,29.90,10.0,West,10.4,-,N/A,,Clear,280,2013-04-27 23:35:00
6:55 PM,69.8,30.2,23,29.90,10.0,West,6.9,-,N/A,,Clear,260,2013-04-27 23:55:00
7:15 PM,68.0,30.2,24,29.90,10.0,WSW,4.6,-,N/A,,Clear,240,2013-04-28 00:15:00
7:35 PM,66.2,35.6,32,29.89,10.0,SSW,4.6,-,N/A,,Clear,200,2013-04-28 00:35:00
7:55 PM,59.0,35.6,42,29.89,10.0,SSW,10.4,-,N/A,,Clear,200,2013-04-28 00:55:00
8:15 PM,59.0,33.8,39,29.89,10.0,SSW,11.5,-,N/A,,Clear,200,2013-04-28 01:15:00
8:35 PM,57.2,33.8,41,29.88,10.0,SSW,11.5,-,N/A,,Clear,200,2013-04-28 01:35:00
8:55 PM,55.4,32.0,41,29.88,10.0,SW,9.2,-,N/A,,Clear,220,2013-04-28 01:55:00
9:15 PM,57.2,30.2,36,29.88,10.0,WSW,8.1,-,N/A,,Clear,240,2013-04-28 02:15:00
9:35 PM,55.4,32.0,41,29.89,10.0,SSW,6.9,-,N/A,,Clear,210,2013-04-28 02:35:00
9:55 PM,53.6,32.0,44,29.89,10.0,WSW,3.5,-,N/A,,Clear,250,2013-04-28 02:55:00
10:15 PM,55.4,30.2,38,29.89,10.0,Calm,Calm,-,N/A,,Clear,0,2013-04-28 03:15:00
10:35 PM,53.6,28.4,38,29.89,10.0,SW,5.8,-,N/A,,Clear,220,2013-04-28 03:35:00
10:55 PM,55.4,28.4,36,29.89,10.0,WSW,3.5,-,N/A,,Clear,250,2013-04-28 03:55:00
11:15 PM,53.6,28.4,38,29.88,10.0,West,3.5,-,N/A,,Clear,270,2013-04-28 04:15:00
11:35 PM,53.6,28.4,38,29.88,10.0,Calm,Calm,-,N/A,,Clear,0,2013-04-28 04:35:00
11:55 PM,51.8,30.2,44,29.87,10.0,Calm,Calm,-,N/A,,Clear,0,2013-04-28 04:55:00